Weather in Kangalassy

Russia / Sakha (Yakutia) Republic     62°20′53″N   129°58′12″E
temp.,
°C
wind,
m/s
gust,
m/s
humid.,
%
clouds,
%
prec.,
mm/h
press.,
hPa
HPBL,
m
7 march, sun
sun700:00−33e121008 0.0 102319
03:00−33e119939 0.0 102219
06:00−34ene229981 0.0 102119
09:00−31e129754 0.0 102187
12:00−25e129094 0.0 1019327
15:00−21e238797 0.0 1017467
18:00−25ene239791 0.0 101723
21:00−28e239859 0.0 101635
8 march, mon
mon800:00−26ene3598100 0.1 1013138
03:00−26ene3698100 0.2 1011211
06:00−26ene4797100 0.1 1009252
09:00−25ene4797100 0.3 1007257
12:00−22ene4695100 0.1 1005322
15:00−20ene4694100 0.2 1004380
18:00−21ne3596100 0.1 1004149
21:00−23ne349795 0.1 100698
9 march, tue
tue900:00−24nne2397100 0.0 100641
03:00−28n239892 0.0 100823
06:00−28nnw129871 0.0 101019
09:00−24w119684 0.1 1012114
12:00−19wsw239098 0.1 1013357
15:00−16wsw248899 0.1 1012470
18:00−16s1197100 0.1 101320
21:00−19sse1110096 0.1 101320
10 march, wed
wed1000:00−18sse229989 0.1 101221
03:00−18se239995 0.1 101155
06:00−18se3499100 0.1 1009100
09:00−15se4893100 0.1 1007361
12:00−11sse5893100 0.2 1004713
15:00−10s4693100 0.8 1004531
18:00−10w61190100 0.6 1006808
21:00−12wsw41190100 0.7 1007472
11 march, thu
thu1100:00−12wsw41093100 0.1 1008443
03:00−13w51188100 0.1 1010531
06:00−14wsw4989100 0.0 1012415
09:00−16wsw498998 0.0 1014537
12:00−13w4781100 0.0 1016935
15:00−12w4779100 0.1 10161051
18:00−15wsw2287100 0.0 101820
21:00−17sw229494 0.0 101920